Regional Weather Roundup
Issued by NWS

Home | Current Version | Previous Version | Graphics & Text | Print | Product List | Glossary On
Versions: 1 2 3 4 5 6 7 8 9 10 11 12 13 14 15 16 17 18 19 20 21 22 23 24 25 26 27 28 29 30 31 32 33 34 35 36 37 38 39 40 41 42 43 44 45 46 47 48 49 50
000
ASUS43 KFSD 262302
RWRSD

WEATHER ROUNDUP FOR SOUTH DAKOTA
NATIONAL WEATHER SERVICE SIOUX FALLS SD
500 PM CST THU FEB 26 2015

NOTE: "FAIR" INDICATES FEW OR NO CLOUDS BELOW 12,000 FEET WITH NO
SIGNIFICANT WEATHER AND/OR OBSTRUCTIONS TO VISIBILITY.


SDZ001>005-009-010-012>017-270000-
NORTHWEST AND NORTH CENTRAL SOUTH DAKOTA

CITY           SKY/WX    TMP DP  RH WIND       PRES   REMARKS
BUFFALO          N/A     11  -6  46 N5        30.34S WCI   3
FAITH            N/A     13  -5  44 N10       30.43S WCI   0
MOBRIDGE       SUNNY     10  -6  48 N12       30.49S WCI  -5
$$

SDZ012>016-024>037-041>051-057-063-072>074-270000-
SOUTHWEST AND SOUTH CENTRAL SOUTH DAKOTA

CITY           SKY/WX    TMP DP  RH WIND       PRES   REMARKS
RAPID CTY ARPT SUNNY      9  -3  58 N12       30.39S WCI  -6
PIERRE         SUNNY     12  -3  51 N12       30.51S WCI  -2
CUSTER         LGT SNOW   4  -3  73 E8        30.13S WCI  -9
ELLSWORTH AFB  SUNNY     10  -3  56 N12       30.37F WCI  -5
PHILIP         SUNNY     15  -6  39 N8        30.47S WCI   4
PINE RIDGE     SUNNY     13  -4  46 NE9       30.36S WCI   1
WINNER         FAIR      13  -6  42 N12       30.48S WCI  -1
$$

SDZ004>011-016>023-039-040-270000-
NORTHEAST SOUTH DAKOTA

CITY           SKY/WX    TMP DP  RH WIND       PRES   REMARKS
ABERDEEN       SUNNY      6  -6  57 NW13      30.55S WCI -10
WATERTOWN      MOSUNNY    2  -7  66 NW17      30.46S WCI -18
SISSETON         N/A      3  -7  63 N16       30.52S WCI -16
$$

SDZ017-020-022-023-036>040-048>070-270000-
SOUTHEAST SOUTH DAKOTA

CITY           SKY/WX    TMP DP  RH WIND       PRES   REMARKS
SIOUX FALLS    MOSUNNY    4  -5  66 NW14      30.49S WCI -14
HURON          SUNNY      5  -7  57 N12       30.55R WCI -11
MITCHELL       SUNNY      8  -4  58 N16       30.55S WCI -10
YANKTON        SUNNY     10  -4  52 NW10      30.53S WCI  -3
$$

ABBREVIATIONS USED IN REMARKS
   TC - TEMPERATURE IN CELSIUS
  WCI - WIND CHILL INDEX
   HX - HEAT INDEX
  VSB - VISIBILITY



USA.gov is the U.S. government's official web portal to all federal, state and local government web resources and services.